User: anonymous   Login
Location: Unspecified
(0.0000°N, 0.0000°E)
Time: 13:10:24
(UTC+00:00)
Language:

DMSP 5D-2 F-14 - Orbit

View from above orbital plane
View from above orbital plane
View from above satellite
View from above satellite

Ground track
Ground track

The orbit data is extracted from the following two-line orbital elements,

1 24753U 97012A   21016.15366705  .00000017  00000-0  32065-4 0  9991
2 24753  99.0084  41.3875 0008119 328.0973  31.9707 14.15922334228566
Epoch (UTC): 16 January 2021 03:41:16
Eccentricity: 0.0008119
inclination: 99.0084°
perigee height: 833 km
apogee height: 845 km
right ascension of ascending node: 41.3875°
argument of perigee: 328.0973°
revolutions per day: 14.15922334
mean anomaly at epoch: 31.9707°
orbit number at epoch: 22856

The dashed part of the orbit path shows where the satellite is in the earth's shadow,  

DLR